Location: Unspecified
(0.0000°N, 0.0000°E)
Time: 02:05:49
(UTC+00:00)

SKYMED 3 - Visible Passes

Search period start: 06 March 2026 00:00
Search period end: 16 March 2026 00:00
Orbit: 538 x 558 km, 97.8° (Epoch: 5 March)

Date Brightness Start Highest point End Pass type
(mag) Time Alt. Az. Time Alt. Az. Time Alt. Az.
6 Mar 6.1 19:57:11 24° SSW 19:57:11 24° SSW 19:58:50 10° SSW visible
7 Mar 6.1 19:52:17 23° S 19:52:17 23° S 19:53:51 10° S visible
8 Mar 6.1 19:47:22 22° S 19:47:22 22° S 19:48:49 10° S visible
9 Mar 6.2 19:42:27 20° S 19:42:27 20° S 19:43:44 10° S visible
10 Mar 6.3 19:37:32 18° SSE 19:37:32 18° SSE 19:38:37 10° S visible
11 Mar 6.4 19:32:36 15° SSE 19:32:36 15° SSE 19:33:27 10° S visible
12 Mar 6.5 19:27:40 13° SSE 19:27:40 13° SSE 19:28:14 10° SSE visible
13 Mar 6.6 19:22:43 11° SSE 19:22:43 11° SSE 19:22:58 10° SSE visible
